Flag Weather past 2 weeks in MD of Lunenburg, Nova Scotia, Canada

Now
48 °F

Cool.


Feels Like: 44 °F
Forecast: 37 / 46 °F
Wind: 8 mph from Northwest

Location: McNabs Island - AUT

Current Time: Nov 23, 2014 at 3:17:07 PM

Latest Report: Nov 23, 2014 at 2:00 PM


Visibility: N/A

Pressure: 30.02 "Hg

Humidity: 66%

Dew point: 37 °F

Location of MD of LunenburgLocation

Historic Weather in MD of Lunenburg — Graph

°F

MD of Lunenburg temperature yesterday

Maximum temperature yesterday: 43 °F (at 11:00 PM)
Minimum temperature yesterday: 24 °F (at 7:00 AM)
Average temperature yesterday: 31 °F

Past Weeks' High & Low Weather Summary

 TemperatureHumidityPressure
High60 °F (Nov 18, 4:00 AM)100% (Nov 10, 2:00 AM)30.35 "Hg (Nov 10, 2:00 AM)
Low24 °F (Nov 22, 7:00 AM)50% (Nov 10, 2:00 PM)29.31 "Hg (Nov 18, 5:00 AM)
Average41 °F81%29.95 "Hg
* Reported Nov 8 2:00 PM — Nov 23 2:00 PM, MD of Lunenburg, Weather by CustomWeather, © 2014

Note: Actual official high and low records may vary slightly from our data, if they occured in-between our weather recording intervals... More about our weather records

Advertising

MD of Lunenburg weather history for previous 24 hours

 ConditionsComfort  
Time TempWeatherWind HumidityBarometerVisibility
2:00 PM
Nov 23
48 °FCool.8 mph66%30.02 "HgN/A
1:00 PM46 °FCool.8 mph73%30.00 "HgN/A
12:00 PM47 °FCool.7 mph74%30.01 "HgN/A
11:00 AM48 °FCool.12 mph69%30.00 "HgN/A
10:00 AM47 °FCool.9 mph72%29.99 "HgN/A
9:00 AM44 °FQuite cool.8 mph80%29.98 "HgN/A
8:00 AM43 °FQuite cool.9 mph81%29.96 "HgN/A
7:00 AM43 °FQuite cool.9 mph84%29.93 "HgN/A
6:00 AM42 °FQuite cool.8 mph88%29.90 "HgN/A
5:00 AM43 °FQuite cool.14 mph87%29.89 "HgN/A
4:00 AM44 °FQuite cool.13 mph86%29.87 "HgN/A
3:00 AM43 °FQuite cool.17 mph84%29.88 "HgN/A
2:00 AM43 °FQuite cool.16 mph79%29.88 "HgN/A
1:00 AM43 °FQuite cool.21 mph77%29.88 "HgN/A
12:00 AM43 °FQuite cool.20 mph76%29.92 "HgN/A
11:00 PM
Nov 22
43 °FQuite cool.22 mph75%29.93 "HgN/A
10:00 PM42 °FQuite cool.23 mph74%29.94 "HgN/A
9:00 PM41 °FQuite cool.26 mph74%29.95 "HgN/A
8:00 PM40 °FChilly.29 mph73%29.96 "HgN/A
7:00 PM39 °FChilly.30 mph73%29.97 "HgN/A
6:00 PM35 °FChilly.17 mph68%30.02 "HgN/A
5:00 PM34 °FChilly.18 mph62%30.03 "HgN/A
4:00 PM33 °FChilly.17 mph60%30.06 "HgN/A
3:00 PM33 °FChilly.24 mph58%30.10 "HgN/A
Weather by CustomWeather, © 2014

See weather overviewHow to use our weather pages